Time,TemperatureF,DewpointF,PressureIn,WindDirection,WindDirectionDegrees,WindSpeedMPH,WindSpeedGustMPH,Humidity,HourlyPrecipIn,Conditions,Clouds,dailyrainin,SolarRadiationWatts/m^2,SoftwareType,DateUTC
2013-06-29 00:12:00,99.0,48.0,-100.00,South,188,4.0,10.0,18,0.00,,,-99.99,0.000000,,2013-06-29 07:12:00,
2013-06-29 00:22:00,99.0,48.0,-100.00,South,188,4.0,10.0,18,0.00,,,-99.99,0.000000,,2013-06-29 07:22:00,
2013-06-29 00:33:00,99.0,48.0,-100.00,South,188,4.0,10.0,18,0.00,,,-99.99,0.000000,,2013-06-29 07:33:00,
2013-06-29 00:43:00,99.0,48.0,-100.00,South,188,4.0,10.0,18,0.00,,,-99.99,0.000000,,2013-06-29 07:43:00,
2013-06-29 01:11:00,96.0,48.0,-100.00,SE,138,3.0,6.0,20,0.00,,,-99.99,0.000000,,2013-06-29 08:11:00,
2013-06-29 01:21:00,96.0,48.0,-100.00,SE,138,3.0,6.0,20,0.00,,,-99.99,0.000000,,2013-06-29 08:21:00,
2013-06-29 01:33:00,96.0,48.0,-100.00,SE,138,3.0,6.0,20,0.00,,,-99.99,0.000000,,2013-06-29 08:33:00,
2013-06-29 01:43:00,96.0,48.0,-100.00,SE,138,3.0,6.0,20,0.00,,,-99.99,0.000000,,2013-06-29 08:43:00,
2013-06-29 02:12:00,96.0,50.0,-100.00,SE,135,3.0,8.0,21,0.00,,,-99.99,0.000000,,2013-06-29 09:12:00,
2013-06-29 02:22:00,96.0,50.0,-100.00,SE,135,3.0,8.0,21,0.00,,,-99.99,0.000000,,2013-06-29 09:22:00,
2013-06-29 02:33:00,96.0,50.0,-100.00,SE,135,3.0,8.0,21,0.00,,,-99.99,0.000000,,2013-06-29 09:33:00,
2013-06-29 02:42:00,96.0,50.0,-100.00,SE,135,3.0,8.0,21,0.00,,,-99.99,0.000000,,2013-06-29 09:42:00,
2013-06-29 03:11:00,93.0,52.0,-100.00,SSE,160,3.0,7.0,25,0.00,,,-99.99,0.000000,,2013-06-29 10:11:00,
2013-06-29 03:22:00,93.0,52.0,-100.00,SSE,160,3.0,7.0,25,0.00,,,-99.99,0.000000,,2013-06-29 10:22:00,
2013-06-29 07:12:00,85.0,59.0,-100.00,ENE,58,1.0,4.0,41,-99.99,,,-99.99,95.000000,,2013-06-29 14:12:00,
2013-06-29 07:23:00,85.0,59.0,-100.00,ENE,58,1.0,4.0,41,-99.99,,,-99.99,95.000000,,2013-06-29 14:23:00,
2013-06-29 07:33:00,85.0,59.0,-100.00,ENE,58,1.0,4.0,41,-99.99,,,-99.99,95.000000,,2013-06-29 14:33:00,
2013-06-29 10:12:00,105.0,46.0,-100.00,ENE,69,4.0,7.0,14,0.00,,,0.00,306.000000,,2013-06-29 17:12:00,
2013-06-29 10:22:00,105.0,46.0,-100.00,ENE,69,4.0,7.0,14,0.00,,,0.00,306.000000,,2013-06-29 17:22:00,
2013-06-29 10:33:00,105.0,46.0,-100.00,ENE,69,4.0,7.0,14,0.00,,,0.00,306.000000,,2013-06-29 17:33:00,
2013-06-29 10:42:00,105.0,46.0,-100.00,ENE,69,4.0,7.0,14,0.00,,,0.00,306.000000,,2013-06-29 17:42:00,
2013-06-29 11:11:00,106.0,47.0,-100.00,NNW,343,4.0,6.0,14,0.00,,,0.00,276.000000,,2013-06-29 18:11:00,
2013-06-29 11:22:00,106.0,47.0,-100.00,NNW,343,4.0,6.0,14,0.00,,,0.00,276.000000,,2013-06-29 18:22:00,
2013-06-29 11:33:00,106.0,47.0,-100.00,NNW,343,4.0,6.0,14,0.00,,,0.00,276.000000,,2013-06-29 18:33:00,
2013-06-29 11:43:00,106.0,47.0,-100.00,NNW,343,4.0,6.0,14,0.00,,,0.00,276.000000,,2013-06-29 18:43:00,
2013-06-29 12:12:00,109.0,45.0,-100.00,ESE,106,5.0,10.0,12,0.00,,,0.00,487.000000,,2013-06-29 19:12:00,
2013-06-29 12:22:00,109.0,45.0,-100.00,ESE,106,5.0,10.0,12,0.00,,,0.00,487.000000,,2013-06-29 19:22:00,
2013-06-29 12:34:00,109.0,45.0,-100.00,ESE,106,5.0,10.0,12,0.00,,,0.00,487.000000,,2013-06-29 19:34:00,
2013-06-29 12:43:00,109.0,45.0,-100.00,ESE,106,5.0,10.0,12,0.00,,,0.00,487.000000,,2013-06-29 19:43:00,
2013-06-29 13:11:00,116.0,40.0,-100.00,SSW,207,4.0,10.0,8,0.00,,,0.00,1054.000000,,2013-06-29 20:11:00,
2013-06-29 13:23:00,116.0,40.0,-100.00,SSW,207,4.0,10.0,8,0.00,,,0.00,1054.000000,,2013-06-29 20:23:00,
2013-06-29 14:11:00,117.0,46.0,-100.00,SSE,167,6.0,10.0,10,0.00,,,0.00,964.000000,,2013-06-29 21:11:00,
2013-06-29 14:22:00,117.0,46.0,-100.00,SSE,167,6.0,10.0,10,0.00,,,0.00,964.000000,,2013-06-29 21:22:00,
2013-06-29 14:32:00,117.0,46.0,-100.00,SSE,167,6.0,10.0,10,0.00,,,0.00,964.000000,,2013-06-29 21:32:00,
2013-06-29 14:42:00,117.0,46.0,-100.00,SSE,167,6.0,10.0,10,0.00,,,0.00,964.000000,,2013-06-29 21:42:00,
2013-06-29 15:11:00,114.0,53.0,-100.00,SSE,152,10.0,16.0,14,0.00,,,0.00,825.000000,,2013-06-29 22:11:00,
2013-06-29 15:21:00,114.0,53.0,-100.00,SSE,152,10.0,16.0,14,0.00,,,0.00,825.000000,,2013-06-29 22:21:00,
2013-06-29 15:33:00,114.0,53.0,-100.00,SSE,152,10.0,16.0,14,0.00,,,0.00,825.000000,,2013-06-29 22:33:00,
2013-06-29 15:43:00,114.0,53.0,-100.00,SSE,152,10.0,16.0,14,0.00,,,0.00,825.000000,,2013-06-29 22:43:00,
2013-06-29 16:12:00,114.0,57.0,-100.00,SE,145,10.0,16.0,16,0.00,,,0.00,812.000000,,2013-06-29 23:12:00,
2013-06-29 16:23:00,114.0,57.0,-100.00,SE,145,10.0,16.0,16,0.00,,,0.00,812.000000,,2013-06-29 23:23:00,
2013-06-29 16:33:00,114.0,57.0,-100.00,SE,145,10.0,16.0,16,0.00,,,0.00,812.000000,,2013-06-29 23:33:00,
2013-06-29 16:43:00,114.0,57.0,-100.00,SE,145,10.0,16.0,16,0.00,,,0.00,812.000000,,2013-06-29 23:43:00,
2013-06-29 17:11:00,112.0,58.0,-100.00,SSE,154,11.0,19.0,18,0.00,,,0.00,587.000000,,2013-06-30 00:11:00,
2013-06-29 17:22:00,112.0,58.0,-100.00,SSE,154,11.0,19.0,18,0.00,,,0.00,587.000000,,2013-06-30 00:22:00,
2013-06-29 17:33:00,112.0,58.0,-100.00,SSE,154,11.0,19.0,18,0.00,,,0.00,587.000000,,2013-06-30 00:33:00,
2013-06-29 17:42:00,112.0,58.0,-100.00,SSE,154,11.0,19.0,18,0.00,,,0.00,587.000000,,2013-06-30 00:42:00,
2013-06-29 18:11:00,109.0,59.0,-100.00,SSE,153,11.0,18.0,20,0.00,,,0.00,398.000000,,2013-06-30 01:11:00,
2013-06-29 18:22:00,109.0,59.0,-100.00,SSE,153,11.0,18.0,20,0.00,,,0.00,398.000000,,2013-06-30 01:22:00,
2013-06-29 18:33:00,109.0,59.0,-100.00,SSE,153,11.0,18.0,20,0.00,,,0.00,398.000000,,2013-06-30 01:33:00,
2013-06-29 18:44:00,109.0,59.0,-100.00,SSE,153,11.0,18.0,20,0.00,,,0.00,398.000000,,2013-06-30 01:44:00,
2013-06-29 19:11:00,106.0,60.0,-100.00,SSE,158,10.0,15.0,23,0.00,,,0.00,209.000000,,2013-06-30 02:11:00,
2013-06-29 19:23:00,106.0,60.0,-100.00,SSE,158,10.0,15.0,23,0.00,,,0.00,209.000000,,2013-06-30 02:23:00,
2013-06-29 19:33:00,106.0,60.0,-100.00,SSE,158,10.0,15.0,23,0.00,,,0.00,209.000000,,2013-06-30 02:33:00,
2013-06-29 19:43:00,106.0,60.0,-100.00,SSE,158,10.0,15.0,23,0.00,,,0.00,209.000000,,2013-06-30 02:43:00,
2013-06-29 20:11:00,101.0,60.0,-100.00,SSE,164,9.0,15.0,26,0.00,,,0.00,55.000000,,2013-06-30 03:11:00,
2013-06-29 20:23:00,101.0,60.0,-100.00,SSE,164,9.0,15.0,26,0.00,,,0.00,55.000000,,2013-06-30 03:23:00,
2013-06-29 20:33:00,101.0,60.0,-100.00,SSE,164,9.0,15.0,26,0.00,,,0.00,55.000000,,2013-06-30 03:33:00,
2013-06-29 20:43:00,101.0,60.0,-100.00,SSE,164,9.0,15.0,26,0.00,,,0.00,55.000000,,2013-06-30 03:43:00,
2013-06-29 21:12:00,99.0,57.0,-100.00,South,170,9.0,15.0,25,0.00,,,0.00,1.000000,,2013-06-30 04:12:00,
2013-06-29 21:22:00,99.0,57.0,-100.00,South,170,9.0,15.0,25,0.00,,,0.00,1.000000,,2013-06-30 04:22:00,
2013-06-29 21:33:00,99.0,57.0,-100.00,South,170,9.0,15.0,25,0.00,,,0.00,1.000000,,2013-06-30 04:33:00,
2013-06-29 21:43:00,99.0,57.0,-100.00,South,170,9.0,15.0,25,0.00,,,0.00,1.000000,,2013-06-30 04:43:00,
2013-06-29 22:12:00,98.0,58.0,-100.00,SSE,159,9.0,17.0,27,0.00,,,0.00,0.000000,,2013-06-30 05:12:00,
2013-06-29 22:22:00,98.0,58.0,-100.00,SSE,159,9.0,17.0,27,0.00,,,0.00,0.000000,,2013-06-30 05:22:00,
2013-06-29 22:33:00,98.0,58.0,-100.00,SSE,159,9.0,17.0,27,0.00,,,0.00,0.000000,,2013-06-30 05:33:00,
2013-06-29 22:43:00,98.0,58.0,-100.00,SSE,159,9.0,17.0,27,0.00,,,0.00,0.000000,,2013-06-30 05:43:00,
2013-06-29 23:12:00,96.0,58.0,-100.00,SSE,162,9.0,15.0,28,0.00,,,0.00,0.000000,,2013-06-30 06:12:00,
2013-06-29 23:23:00,96.0,58.0,-100.00,SSE,162,9.0,15.0,28,0.00,,,0.00,0.000000,,2013-06-30 06:23:00,
2013-06-29 23:33:00,96.0,58.0,-100.00,SSE,162,9.0,15.0,28,0.00,,,0.00,0.000000,,2013-06-30 06:33:00,
2013-06-29 23:43:00,96.0,58.0,-100.00,SSE,162,9.0,15.0,28,0.00,,,0.00,0.000000,,2013-06-30 06:43:00,